Weather in Nizhnetroitsky

Russia / Republic of Bashkortostan     54°20′22″N   53°41′14″E
temp.,
°C
wind,
m/s
gust,
m/s
humid.,
%
clouds,
%
prec.,
mm/h
press.,
hPa
HPBL,
m
27 february, sat
sat2723:00−19sse8169273 0.0 1017457
02:00−16sse91791100 0.0 1012581
05:00−14sse101894100 2.3 1007593
08:00−14sse91792100 2.6 1003631
11:00−11sse81492100 3.1 1002505
14:00−8sse81393100 0.4 1001441
17:00−6sse61094100 1.0 1000335
20:00−5sse51095100 1.2 999300
28 february, sun
sun2823:00−3sse3697100 2.2 998179
02:00−2ssw1399100 0.7 997122
05:00−3wnw1199100 1.4 99822
08:00−5nnw239788 0.5 99945
11:00−8n469588 0.6 1000250
14:00−9n5795100 0.1 1002336
17:00−9n5893100 0.2 1004392
20:00−12nnw4995100 0.1 1006335
1 march, mon
mon123:00−13nnw4996100 0.1 1009250
02:00−14nnw4896100 0.1 1011261
05:00−17nnw379698 0.3 1013235
08:00−19n369890 0.1 1015183
11:00−18n359694 0.1 1017228
14:00−15nnw3593100 0.0 1019316
17:00−15nnw3594100 0.0 1020327
20:00−21n2210088 0.0 102120
2 march, tue
tue223:00−23w1110054 0.0 102120
02:00−23sw2210024 0.0 102120
05:00−23ssw3310026 0.0 102049
08:00−24ssw479968 0.0 1017128
11:00−19ssw6119783 0.0 1015283
14:00−15s81395100 0.1 1012376
17:00−12ssw81494100 0.6 1009509
20:00−12ssw81594100 0.9 1007549
3 march, wed
wed323:00−10s81493100 1.6 1005499
02:00−7s71394100 0.9 1002520
05:00−5s51195100 1.6 1000470
08:00−6ssw4896100 0.5 999254
11:00−5sw359796 0.7 999244
14:00−3sw459596 0.1 999426
17:00−3sw359698 0.6 1000356
20:00−6nnw51095100 0.9 1001426